Location: Les Jeannots
(43.2262°N, 5.5774°E)
Time: 18:10:58
(UTC+00:00)

NOSS 0 Rocket - Pass Details

Date: 05 July 2020
Orbit: 934 x 955 km, 70.0° (Epoch: 13 August)

Event Time Altitude Azimuth Distance (km) Brightness Sun altitude
Exits shadow 22:07:31 23° 206° (SSW) 1,877 5.1 -20.6°
Maximum altitude 22:11:33 88° 292° (WNW) 943 3.9 -20.9°
Drops below altitude 10° 22:17:45 10° 26° (NNE) 2,662 6.8 -21.3°
Sets 22:20:17 0° 27° (NNE) 3,613 7.6 -21.4°
